Regional Weather Roundup
Issued by NWS

Home | Current Version | Previous Version | Graphics & Text | Print | Product List | Glossary On
Versions: 1 2 3 4 5 6 7 8 9 10 11 12 13 14 15 16 17 18 19 20 21 22 23 24 25 26 27 28 29 30 31 32 33 34 35 36 37 38 39 40 41 42 43 44 45 46 47 48 49 50
000
ASUS45 KSLC 011610
RWRUT

UTAH REGIONAL WEATHER ROUNDUP
NATIONAL WEATHER SERVICE SALT LAKE CITY UT
1000 AM MDT WED JUL 01 2015

UTZ001>011-023>025-011700-

NORTHERN UTAH

CITY           SKY/WX    TMP DP  RH WIND       PRES   REMARKS
BRIGHAM CITY   MOSUNNY   83  47  28 CALM      30.10S
HILL AFB       MOSUNNY   78  54  43 E8        30.14R
LOGAN          SUNNY     80  54  40 CALM      30.11F
OGDEN          MOSUNNY   84  51  31 SE6       30.11S
PROVO AIRPORT  SUNNY     81  55  41 CALM      30.12F
SALT LAKE CITY MOSUNNY   87  55  33 VRB3      30.09R
VERNAL         PTSUNNY   80  49  33 CALM      30.17S
WENDOVER       MOSUNNY   84  52  32 SE8       30.11S
HEBER CITY     MOSUNNY   75  50  41 CALM      30.21S
WEST JORDAN    SUNNY     82  54  36 NE5       30.13R

$$

UTZ012>022-026-027-011700-

SOUTHERN/CENTRAL UTAH

CITY           SKY/WX    TMP DP  RH WIND       PRES   REMARKS
BLANDING       PTSUNNY   82  46  28 SE5       30.25S
BRYCE CANYON   SUNNY     73  50  44 N5        30.33F
CEDAR CITY     SUNNY     80  44  27 CALM      30.18S
DELTA          SUNNY     82  51  34 NE6       30.13S
HANKSVILLE     PTSUNNY   90  46  22 CALM      30.07S
MILFORD        MOSUNNY   85  50  29 NE7       30.12F
MOAB/CYNLANDS  SUNNY     89  46  22 E10       30.05R
PRICE          MOSUNNY   84  46  26 CALM      30.18F
ST GEORGE      MOSUNNY   91  55  29 W13       29.98S
KANAB          MOSUNNY   81  48  32 CALM      30.18F

$$

REGIONAL REPORTS     COLORADO/ARIZONA

CITY           SKY/WX    TMP DP  RH WIND       PRES   REMARKS
CRAIG, CO      MOSUNNY   72  52  49 CALM      30.24F
GRAND JUNCTION PTSUNNY   83  45  26 SE12      30.11S
RIFLE          MOSUNNY   78  48  34 VRB5      30.17F
MONTROSE       PTSUNNY   79  48  33 CALM      30.19F
CORTEZ         SUNNY     82  47  29 CALM      30.19S
PAGE, AZ       SUNNY     91  44  19 VRB6      30.03F
GRAND CANYON   SUNNY     73  54  51 W9        30.27S
KINGMAN        SUNNY     84  56  38 SW15      30.07S
FLAGSTAFF      SUNNY     71  55  56 VRB6      30.29F

$$

REGIONAL REPORTS    NEVADA/IDAHO/WYOMING

CITY           SKY/WX    TMP DP  RH WIND       PRES   REMARKS
LAS VEGAS, NV  MOSUNNY   96  55  25 CALM      29.88F HX  94
ELY            MOSUNNY   74  49  41 CALM      30.25F
ELKO           MOSUNNY   78  56  46 S3        30.19R
POCATELLO, ID  SUNNY     80  56  43 W13       30.13S
BURLEY         SUNNY     79  54  41 W8        30.10S
EVANSTON, WY   MOSUNNY   74  48  39 VRB7      30.31S
ROCK SPRINGS   MOSUNNY   74  54  49 NW5       30.27S
KEMMERER       MOSUNNY   75  46  35 NW7       30.32S

$$


USA.gov is the U.S. government's official web portal to all federal, state and local government web resources and services.